Regional Weather Roundup
Issued by NWS Northern Indiana

Home | Current Version | Previous Version | Graphics & Text | Print | Product List | Glossary On
Versions: 1 2 3 4 5 6 7 8 9 10 11 12 13 14 15 16 17 18 19 20 21 22 23 24 25 26 27 28 29 30 31 32 33 34 35 36 37 38 39 40 41 42 43 44 45 46 47 48 49 50
000
ASUS43 KIWX 301100
RWRIWX

KIWX WEATHER ROUNDUP
NATIONAL WEATHER SERVICE NORTHERN INDIANA
700 AM EDT THU OCT 30 2014

NOTE: "FAIR" INDICATES FEW OR NO CLOUDS BELOW 12,000 FEET WITH NO
SIGNIFICANT WEATHER AND/OR OBSTRUCTIONS TO VISIBILITY.

* THESE STATIONS ARE NOT UNDER NWS QUALITY CONTROL. THEY ALSO MAY NOT
  REPORT WEATHER SUCH AS PRECIPITATION OR FOG.

INZ001>027-301200-
NORTHERN INDIANA

CITY           SKY/WX    TMP DP  RH WIND       PRES   REMARKS
GARY*          PTCLDY    36  34  93 S7        30.15S
SOUTH BEND     CLOUDY    44  37  76 SW5       30.14S
GOSHEN         CLOUDY    43  38  82 SW3       30.13S
ANGOLA*        CLOUDY    43  39  87 CALM      30.13R
FORT WAYNE     CLOUDY    43  37  79 CALM      30.15S
PERU/GRISSOM   CLOUDY    42  42 100 SW2       30.15S

$$
INZ028>050-301200-
CENTRAL INDIANA

CITY           SKY/WX    TMP DP  RH WIND       PRES   REMARKS
LAFAYETTE      CLEAR     31  31 100 CALM      30.17R
KOKOMO*        CLOUDY    43  36  75 CALM      30.16S
MUNCIE*        CLOUDY    43  36  76 CALM      30.15S
INDIANAPOLIS   CLEAR     34  30  85 SW6       30.16R WCI  29

$$
MIZ043>046-050>051-056>058-064>065-071>073-077>080-301200-
SOUTHWEST LOWER MICHIGAN

CITY           SKY/WX    TMP DP  RH WIND       PRES   REMARKS
BATTLE CREEK   CLOUDY    43  37  79 S5        30.12F
BENTON HARBOR  CLOUDY    45  35  68 S5        30.12S
COLDWATER*     CLOUDY    43  41  92 CALM      30.12F
HILLSDALE*     CLOUDY    34  34 100 CALM      30.12S
HOLLAND        CLOUDY    45  38  76 S6        30.11F
GRAND RAPIDS   CLOUDY    41  38  89 CALM      30.11S
KALAMAZOO      CLOUDY    44  37  76 S5        30.12F
STURGIS*       CLOUDY    43  39  87 CALM      30.12S
THREE RIVERS*  CLOUDY    44  39  83 CALM      30.12F

$$
OHZ001>008-015>018-024>025-301200-
NORTHWEST OHIO

CITY           SKY/WX    TMP DP  RH WIND       PRES   REMARKS
DEFIANCE       PTCLDY    36  34  92 CALM      30.14S
FINDLAY        MOCLDY    41  36  82 NW5       30.13R
TOLEDO EXPRESS CLEAR     34  32  92 CALM      30.13S
TOLEDO METCALF CLEAR     37  32  82 CALM      30.14S
LIMA           CLOUDY    42  37  82 N5        30.13S

$$
AND FOR LAKE MICHIGAN COASTAL AND OPEN LAKE BUOY OBSERVATIONS

STATION/POSITION TEMP    WIND        PRES    VSBY  WAVE
                 AIR SEA DIR/SP/G                  HT/PER
                 (F)     (DEG/KT/KT) (MB)    (MI)  (FT/S)
CALUMET HARBOR    39     210/  4/  5 1019.3S
MICHIGAN CITY     46     200/ 11/ 12   N/A
SAINT JOSEPH      49     260/  6/ 13 1020.7S
SOUTH LAKE BUOY   47 53  240/  4/  6 1020.2F         2/ 5

$$
&&



USA.gov is the U.S. government's official web portal to all federal, state and local government web resources and services.